Weather History for KGHW - December, 2012

Change the Weather History Date:

Monday, December 3, 2012

  Actual Average Record
Temperature  
Mean Temperature 42 °F -  
Max Temperature 48 °F 28 °F 59 °F (1962)
Min Temperature 35 °F 11 °F -25 °F (1985)
Degree Days  
Heating Degree Days 24    
Moisture  
Dew Point 35 °F    
Average Humidity 74    
Maximum Humidity 93    
Minimum Humidity 61    
Precipitation  
Precipitation 0.00 in - - ()
Sea Level Pressure  
Sea Level Pressure 29.70 in    
Wind  
Wind Speed 19 mph (WSW)    
Max Wind Speed 29 mph    
Max Gust Speed 41 mph    
Visibility 9 miles    
Events Rain    
Averages and records for this station are not official NWS values.
T = Trace of Precipitation, MM = Missing Value Source: NWS Daily Summary

Daily Weather History Graph

Daily Weather History Graph

Search for Another Location

Airport or City:

Trip Planner

Search our weather history database for the weather conditions in past years. The results will help you decide how hot, cold, wet, or windy it might be!

Date:

Astronomy

Dec. 03, 2012 Rise Set
Actual Time 7:44 AM CST 4:38 PM CST
Civil Twilight 7:10 AM CST 5:11 PM CST
Nautical Twilight 6:33 AM CST 5:49 PM CST
Astronomical Twilight 5:57 AM CST 6:25 PM CST
Moon 9:34 PM CST 11:00 AM CST
Length of Visible Light 10h 01m
Length of Day
8h 53m
Waning Gibbous, 78% of the Moon is Illuminated
Dec 3
Waning Gibbous
Dec 6
Last Quarter
Dec 13
New
Dec 19
First Quarter
Dec 28
Full

Hourly Weather History & Observations

Time (CST) Temp. Windchill Dew Point Humidity Pressure Visibility Wind Dir Wind Speed Gust Speed Precip Events Conditions
7:47 AM 46.4 °F 38.1 °F 44.6 °F 93% 29.52 in 4.0 mi South 24.2 mph 28.8 mph N/A   Mostly Cloudy
8:13 AM 46.4 °F 38.5 °F 44.6 °F 93% 29.51 in 3.0 mi South 21.9 mph 26.5 mph N/A   Mostly Cloudy
8:34 AM 46.4 °F 38.7 °F 44.6 °F 93% 29.50 in 3.0 mi South 20.7 mph 33.4 mph N/A   Scattered Clouds
8:54 AM 46.4 °F 39.0 °F 44.6 °F 93% 29.50 in 3.0 mi South 19.6 mph 28.8 mph N/A   Mostly Cloudy
9:13 AM 46.4 °F 38.7 °F 44.6 °F 93% 29.51 in 3.0 mi South 20.7 mph 26.5 mph N/A   Mostly Cloudy
9:34 AM 46.4 °F 39.2 °F 44.6 °F 93% 29.52 in 4.0 mi SSW 18.4 mph 25.3 mph N/A   Scattered Clouds
9:53 AM 46.4 °F 39.5 °F 44.6 °F 93% 29.52 in 4.0 mi SSW 17.3 mph - N/A   Clear
10:13 AM 46.4 °F 40.4 °F 42.8 °F 87% 29.53 in 5.0 mi SW 13.8 mph - N/A   Clear
10:34 AM 46.4 °F 39.5 °F 41.0 °F 81% 29.54 in 7.0 mi West 17.3 mph 23.0 mph N/A   Clear
10:53 AM 46.4 °F 38.1 °F 39.2 °F 76% 29.56 in 10.0 mi West 24.2 mph 27.6 mph N/A   Clear
11:34 AM 48.2 °F - 39.2 °F 71% 29.58 in 10.0 mi WNW 28.8 mph 41.4 mph N/A   Mostly Cloudy
11:53 AM 48.2 °F - 39.2 °F 71% 29.59 in 10.0 mi WNW 26.5 mph 39.1 mph N/A   Scattered Clouds
12:13 PM 46.4 °F 38.1 °F 41.0 °F 81% 29.59 in 10.0 mi WNW 24.2 mph 32.2 mph N/A   Drizzle
12:34 PM 46.4 °F 39.2 °F 42.8 °F 87% 29.60 in 10.0 mi WNW 18.4 mph 25.3 mph N/A Rain Light Rain
12:53 PM 46.4 °F 38.7 °F 42.8 °F 87% 29.61 in 10.0 mi WNW 20.7 mph 28.8 mph N/A   Mostly Cloudy
1:13 PM 46.4 °F 37.9 °F 42.8 °F 87% 29.62 in 10.0 mi West 25.3 mph 29.9 mph N/A   Mostly Cloudy
1:34 PM 46.4 °F 38.7 °F 42.8 °F 87% 29.63 in 10.0 mi West 20.7 mph 28.8 mph N/A   Mostly Cloudy
1:53 PM 48.2 °F - 39.2 °F 71% 29.63 in 10.0 mi West 21.9 mph 32.2 mph N/A   Scattered Clouds
2:13 PM 48.2 °F - 37.4 °F 66% 29.65 in 10.0 mi West 23.0 mph 34.5 mph N/A   Scattered Clouds
2:33 PM 48.2 °F - 35.6 °F 62% 29.66 in 10.0 mi WNW 21.9 mph 27.6 mph N/A   Clear
2:53 PM 48.2 °F - 35.6 °F 62% 29.68 in 10.0 mi West 23.0 mph 31.1 mph N/A   Clear
3:14 PM 46.4 °F 40.1 °F 35.6 °F 66% 29.70 in 10.0 mi West 15.0 mph 27.6 mph N/A   Clear
3:33 PM 46.4 °F 39.5 °F 35.6 °F 66% 29.71 in 10.0 mi West 17.3 mph 24.2 mph N/A   Clear
3:54 PM 46.4 °F 40.4 °F 35.6 °F 66% 29.73 in 10.0 mi West 13.8 mph 21.9 mph N/A   Clear
4:13 PM 46.4 °F 41.1 °F 35.6 °F 66% 29.73 in 10.0 mi West 11.5 mph 18.4 mph N/A   Clear
4:54 PM 42.8 °F 37.5 °F 33.8 °F 70% 29.75 in 10.0 mi WSW 9.2 mph - N/A   Clear
5:13 PM 39.2 °F 34.2 °F 32.0 °F 75% 29.76 in 10.0 mi WSW 6.9 mph - N/A   Clear
5:54 PM 37.4 °F 30.8 °F 30.2 °F 75% 29.79 in 10.0 mi SW 9.2 mph - N/A   Clear
6:13 PM 39.2 °F 31.6 °F 30.2 °F 70% 29.79 in 10.0 mi West 12.7 mph - N/A   Clear
6:33 PM 39.2 °F 32.5 °F 30.2 °F 70% 29.80 in 10.0 mi WSW 10.4 mph - N/A   Clear
6:54 PM 39.2 °F 31.2 °F 28.4 °F 65% 29.81 in 10.0 mi West 13.8 mph - N/A   Clear
7:13 PM 39.2 °F 32.0 °F 28.4 °F 65% 29.82 in 10.0 mi WSW 11.5 mph - N/A   Clear
7:33 PM 41.0 °F 33.1 °F 28.4 °F 61% 29.82 in 10.0 mi West 15.0 mph - N/A   Clear
7:54 PM 39.2 °F 31.2 °F 28.4 °F 65% 29.83 in 10.0 mi WSW 13.8 mph 19.6 mph N/A   Clear
8:13 PM 39.2 °F 31.2 °F 26.6 °F 61% 29.83 in 10.0 mi WSW 13.8 mph - N/A   Clear
8:33 PM 39.2 °F 31.6 °F 26.6 °F 61% 29.84 in 10.0 mi WSW 12.7 mph - N/A   Clear
8:54 PM 39.2 °F 30.5 °F 26.6 °F 61% 29.84 in 10.0 mi WSW 16.1 mph 24.2 mph N/A   Clear
9:13 PM 39.2 °F 30.5 °F 26.6 °F 61% 29.85 in 10.0 mi WSW 16.1 mph - N/A   Clear
9:33 PM 37.4 °F 28.5 °F 26.6 °F 65% 29.86 in 10.0 mi WSW 15.0 mph - N/A   Clear
9:54 PM 37.4 °F 28.5 °F 26.6 °F 65% 29.88 in 10.0 mi WSW 15.0 mph - N/A   Clear
10:13 PM 35.6 °F 28.0 °F 26.6 °F 70% 29.89 in 10.0 mi WSW 10.4 mph - N/A   Clear
10:54 PM 37.4 °F 27.2 °F 26.6 °F 65% 29.90 in 10.0 mi West 19.6 mph 27.6 mph N/A   Clear
11:13 PM 35.6 °F 25.2 °F 26.6 °F 70% 29.91 in 10.0 mi West 18.4 mph 25.3 mph N/A   Clear
11:33 PM 35.6 °F 25.9 °F 24.8 °F 65% 29.92 in 10.0 mi West 16.1 mph 23.0 mph N/A   Clear